Mytilini, Greece

6:25 AM EEST on October 23, 2018 (GMT +0300)
Odysseas Elytis

Weather History for LGMT - October, 2018

Change the Weather History Date:

Thursday, October 11, 2018

  Actual Average Record
Temperature  
Mean Temperature 69 °F -  
Max Temperature 74 °F 68 °F 84 °F (2001)
Min Temperature 64 °F 56 °F 53 °F (2010)
Cooling Degree Days 4    
Growing Degree Days 19 (Base 50)    
Moisture  
Dew Point 57 °F    
Average Humidity 63    
Maximum Humidity 78    
Minimum Humidity 39    
Precipitation  
Precipitation 0.00 in 0.08 in - ()
Sea Level Pressure  
Sea Level Pressure 30.07 in    
Wind  
Wind Speed 10 mph ()    
Max Wind Speed 14 mph    
Max Gust Speed -    
Visibility 6.1 miles    
Events      
Averages and records for this station are not official NWS values.
T = Trace of Precipitation, MM = Missing Value Source: Averaged Metar Reports

Daily Weather History Graph

Daily Weather History Graph

Search for Another Location

Airport or City:

Astronomy

Oct. 11, 2018 Rise Set
Actual Time 7:18 AM EEST 6:41 PM EEST
Civil Twilight 6:52 AM EEST 7:07 PM EEST
Nautical Twilight 6:21 AM EEST 7:38 PM EEST
Astronomical Twilight 5:50 AM EEST 8:09 PM EEST
Moon 9:29 AM EEST (10/11) 8:26 PM EEST (10/11)
Length of Visible Light 12h 15m
Length of Day
11h 22m
Waxing Crescent, 6% of the Moon is Illuminated
Oct 11
Waxing Crescent
Oct 16
First Quarter
Oct 24
Full
Oct 31
Last Quarter
Nov 7
New

Hourly Weather History & Observations

Time (EEST) Temp. Dew Point Humidity Pressure Visibility Wind Dir Wind Speed Gust Speed Precip Events Conditions
12:00 AM 66 °F 55 °F 58% 30.11 in 6 mi NNW 11.5 mph - -  
12:20 AM 66.2 °F 55.4 °F 68% 30.09 in - North 12.7 mph - N/A   Clear
12:50 AM 66.2 °F 57.2 °F 73% 30.09 in - North 12.7 mph - N/A   Clear
4:50 AM 66.2 °F 55.4 °F 68% 30.09 in - North 9.2 mph - N/A   Clear
5:20 AM 64.4 °F 53.6 °F 68% 30.06 in - North 9.2 mph - N/A   Clear
6:00 AM 65 °F 54 °F 59% 30.09 in 6 mi North 11.5 mph - -  
6:20 AM 64.4 °F 53.6 °F 68% 30.06 in - North 11.5 mph - N/A   Clear
6:50 AM 64.4 °F 53.6 °F 68% 30.06 in - North 11.5 mph - N/A   Clear
7:20 AM 64.4 °F 53.6 °F 68% 30.06 in - North 9.2 mph - N/A   Clear
7:50 AM 64.4 °F 53.6 °F 68% 30.06 in - NNW 9.2 mph - N/A   Clear
8:20 AM 66.2 °F 55.4 °F 68% 30.06 in - North 9.2 mph - N/A   Clear
8:50 AM 66.2 °F 55.4 °F 68% 30.06 in - North 5.8 mph - N/A   Clear
9:00 AM 66 °F 55 °F 59% 30.09 in 6 mi North 5.8 mph - -  
9:20 AM 66.2 °F 55.4 °F 68% 30.09 in - NNW 5.8 mph - N/A   Clear
9:50 AM 66.2 °F 55.4 °F 68% 30.09 in - NNW 8.1 mph - N/A   Clear
10:20 AM 68.0 °F 55.4 °F 64% 30.09 in - NNW 11.5 mph - N/A   Clear
10:50 AM 69.8 °F 57.2 °F 64% 30.09 in - NNW 10.4 mph - N/A   Clear
11:20 AM 69.8 °F 57.2 °F 64% 30.09 in - NNW 10.4 mph - N/A   Clear
11:50 AM 71.6 °F 57.2 °F 60% 30.09 in - NNW 13.8 mph - N/A   Clear
12:00 PM 72 °F 58 °F 51% 30.10 in 6 mi NNW 13.8 mph - -  
12:20 PM 71.6 °F 57.2 °F 60% 30.09 in - NNW 13.8 mph - N/A   Clear
12:50 PM 71.6 °F 57.2 °F 60% 30.09 in - NNW 12.7 mph - N/A   Clear
1:50 PM 73.4 °F 57.2 °F 57% 30.06 in - NNW 12.7 mph - N/A   Clear
2:20 PM 73.4 °F 57.2 °F 57% 30.06 in - NNW 12.7 mph - N/A   Clear
2:50 PM 75.2 °F 53.6 °F 47% 30.06 in - NNW 13.8 mph - N/A   Clear
3:00 PM 74 °F 54 °F 39% 30.07 in 7 mi NNW 13.8 mph - -   Clear
3:20 PM 75.2 °F 53.6 °F 47% 30.06 in - NNW 12.7 mph - N/A   Clear
3:50 PM 75.2 °F 53.6 °F 47% 30.06 in - NNW 12.7 mph - N/A   Clear
4:20 PM 73.4 °F 53.6 °F 50% 30.04 in - NNW 12.7 mph - N/A   Clear
4:50 PM 73.4 °F 53.6 °F 50% 30.04 in - NNW 12.7 mph - N/A   Clear
5:20 PM 73.4 °F 53.6 °F 50% 30.04 in - NNW 13.8 mph - N/A   Clear
5:50 PM 71.6 °F 57.2 °F 60% 30.04 in - NNW 11.5 mph - N/A   Clear
6:00 PM 72 °F 58 °F 51% 30.05 in 6 mi NNW 11.5 mph - -  
6:20 PM 69.8 °F 57.2 °F 64% 30.04 in - NNW 11.5 mph - N/A   Clear
6:50 PM 69.8 °F 60.8 °F 73% 30.04 in - NNW 13.8 mph - N/A   Clear
7:20 PM 69.8 °F 60.8 °F 73% 30.06 in - NNW 13.8 mph - N/A   Clear
7:50 PM 69.8 °F 60.8 °F 73% 30.06 in - NNW 13.8 mph - N/A   Clear
8:20 PM 68.0 °F 60.8 °F 78% 30.06 in - NNW 13.8 mph - N/A   Clear
8:50 PM 68.0 °F 60.8 °F 78% 30.06 in - NNW 13.8 mph - N/A   Clear
9:00 PM 68 °F 60 °F 68% 30.08 in 6 mi NNW 13.8 mph - -  
9:20 PM 68.0 °F 60.8 °F 78% 30.06 in - NNW 13.8 mph - N/A   Clear
10:20 PM 68.0 °F 60.8 °F 78% 30.09 in - NNW 13.8 mph - N/A   Clear
10:50 PM 68.0 °F 60.8 °F 78% 30.09 in - NNW 13.8 mph - N/A   Clear